Location: Unspecified
(0.0000°N, 0.0000°E)
Time: 20:44:25
(UTC+00:00)

Transit 2A Rocket - Visible Passes

Search period start: 20 May 2025 00:00
Search period end: 30 May 2025 00:00
Orbit: 591 x 895 km, 66.7° (Epoch: 20 May)

Date Brightness Start Highest point End Pass type
(mag) Time Alt. Az. Time Alt. Az. Time Alt. Az.
22 May 7.4 20:15:20 10° N 20:15:46 12° N 20:15:46 12° N visible
23 May 7.2 19:32:04 10° NE 19:32:28 11° NE 19:32:28 11° NE visible
23 May 8.0 21:12:11 10° NW 21:12:14 10° NW 21:12:14 10° NW visible
24 May 6.7 20:26:39 10° NNW 20:29:01 28° NNW 20:29:01 28° NNW visible
25 May 5.7 19:41:53 10° N 19:45:53 40° NE 19:45:53 40° NE visible
26 May 6.4 18:58:04 10° NNE 19:01:54 20° ENE 19:02:49 19° E visible
26 May 7.0 20:39:23 10° NW 20:42:36 26° W 20:42:36 26° W visible
27 May 5.4 19:53:34 10° NNW 19:58:51 64° WSW 19:59:36 57° SSW visible
28 May 5.2 19:08:32 10° N 19:13:45 59° ENE 19:16:41 28° SE visible
29 May 6.2 18:24:19 10° NNE 18:28:44 26° ENE 18:33:25 10° SE visible
29 May 7.2 20:06:44 10° WNW 20:10:55 22° WSW 20:13:35 16° SSW visible
